#timestamp,LO_Frequency,Hit,StdDev 
1562508015.0,286047002.3,N
1562508015.9,286047002.3,N
1562508035.7,286047002.2,N
1562508055.6,286047003.3,N
1562508075.4,286047003.5,N
1562508095.3,286047000.5,N
1562508115.1,286047000.6,N
1562508116.0,286047000.6,N
1562508135.8,286046998.6,N
1562508155.7,286046998.7,N
1562508175.5,286046997.4,N
1562508195.4,286046998.9,N
1562508215.2,286046997.1,N
1562508235.0,286046997.7,N
1562508235.9,286046997.7,N
1562508255.8,286046996.5,N
1562508275.6,286046999.3,N
1562508295.4,286047000.7,N
1562508315.3,286047002.4,N
1562508335.1,286047001.7,N
1562508355.9,286046999.7,N
1562508375.7,286047004.2,N
1562508395.5,286047001.4,N
1562508415.4,286047003.1,N
1562508435.2,286047003.1,N
1562508455.0,286047002.9,N
1562508456.0,286047002.9,N
1562508475.8,286047005.6,N
1562508495.6,286047005.7,N
1562508515.5,286047003.5,N
1562508535.3,286047003.6,N
1562508555.1,286047005.6,N
1562508575.9,286047003.4,N
1562508595.7,286047004.3,N
1562508615.6,286047004.3,N
1562508635.4,286047002.2,N
1562508655.2,286047002.3,N
1562508675.1,286047001.6,N
1562508676.0,286047001.6,N
1562508695.8,286047003.5,N
1562508715.6,286047003.2,N
1562508735.5,286047005.7,N
1562508755.3,286047005.8,N
1562508775.2,286047005.5,N
1562508795.9,286047003.1,N
1562508815.7,286047004.9,N
1562508835.6,286047005.7,Y
1562508855.4,286047002.6,P
1562508875.3,286047001.9,P
1562508895.1,286047001.7,P
1562508915.8,286047001.8,N
1562508935.7,286047003.1,Y
1562508955.5,286047000.8,P
1562508975.4,286046998.7,N
1562508995.2,286046999.3,N
1562509015.0,286046999.9,N
1562509015.9,286046999.9,N
1562509035.8,286046999.3,N
1562509055.6,286046999.0,N
1562509075.5,286046999.9,N
1562509095.3,286046999.9,N
1562509115.1,286046999.1,N
1562509135.9,286046999.1,N
1562509155.7,286046998.5,N
1562509175.5,286047001.0,N
1562509195.4,286047000.7,N
1562509215.2,286047002.3,N
1562509235.1,286046999.7,N
1562509236.0,286046999.7,N
1562509255.8,286046999.9,N
1562509275.6,286047000.4,N
1562509295.5,286047001.4,N
1562509315.3,286047004.2,Y
1562509335.2,286047002.2,P
1562509355.9,286047000.1,N
1562509375.7,286047002.3,N
1562509395.6,286047004.1,Y
1562509415.4,286047001.0,P
1562509435.2,286047000.2,N
1562509455.1,286047002.0,P
1562509456.0,286047002.0,Y
1562509475.8,286047000.1,P
1562509495.7,286047000.7,N
1562509515.5,286047001.1,N
1562509535.3,286047000.6,N
1562509555.2,286047000.3,N
1562509575.0,286047000.8,N
1562509575.9,286047000.8,N
1562509595.8,286047001.0,N
1562509615.6,286046998.3,Y
1562509635.4,286046998.3,P
1562509655.3,286046998.5,N
1562509675.1,286047000.2,N
1562509695.9,286047002.5,N
1562509715.7,286047000.9,N
1562509735.5,286047001.1,N
1562509755.4,286047002.8,N
1562509775.2,286047001.2,N
1562509795.0,286046998.1,N
1562509795.9,286046998.1,N
1562509815.8,286046999.9,N
1562509835.6,286047000.4,N
1562509855.5,286047001.2,N
1562509875.3,286046999.0,N
1562509895.1,286046998.9,N
1562509915.9,286046998.7,N
1562509935.7,286046997.0,N
1562509955.5,286046998.1,N
1562509975.4,286047001.2,N
1562509995.2,286046999.5,N
1562510015.1,286046999.5,N
1562510016.0,286046999.5,N
1562510035.8,286047001.0,N
1562510055.6,286047001.0,N
1562510075.5,286047000.1,N
1562510095.3,286047000.2,N
1562510115.2,286047001.2,N
1562510135.9,286046999.4,N
1562510155.7,286046998.7,N
1562510175.6,286046998.4,N
1562510195.4,286046996.5,N
1562510215.2,286046997.5,N
1562510235.1,286046999.0,N
1562510236.0,286046999.0,N
1562510255.8,286046996.9,N
1562510275.7,286046997.5,N
1562510295.5,286046995.5,Y
1562510315.3,286046999.5,P
1562510335.2,286046997.1,P
1562510355.0,286046998.9,N
1562510355.9,286046998.9,N
1562510375.8,286046997.2,Y
1562510395.6,286046998.8,P
1562510415.4,286046996.9,P
1562510435.3,286046997.2,P
1562510455.1,286046996.9,Y
1562510475.9,286046999.9,P
1562510495.7,286047000.8,N
1562510515.5,286047001.2,N
1562510535.4,286047000.5,N
1562510555.2,286047000.4,N
1562510575.1,286047000.8,N
1562510576.0,286047000.8,N
1562510595.8,286046996.5,Y
1562510615.7,286046997.2,P
1562510635.5,286046999.6,N
1562510655.3,286046998.3,N
1562510675.2,286046998.5,N
1562510695.0,286046998.5,N
1562510695.9,286046998.5,N
1562510715.8,286047001.2,N
1562510735.6,286046999.1,N
1562510755.4,286046997.3,N
1562510775.3,286046996.9,N
1562510795.1,286046998.5,N
1562510815.8,286046998.5,N
1562510835.7,286046998.5,N
1562510855.5,286046996.9,N
1562510875.4,286046996.9,N
1562510895.2,286046999.6,N
1562510915.0,286046999.1,N
1562510915.9,286046999.1,N
1562510935.8,286046996.9,N
1562510955.6,286046997.7,N
1562510975.5,286046997.7,N
1562510995.3,286046997.4,N
1562511015.1,286046995.8,Y
1562511035.9,286046997.2,P
1562511055.7,286046998.5,N
1562511075.5,286046998.3,N
1562511095.4,286046998.8,N
1562511115.2,286046997.2,Y
1562511135.1,286046999.0,P
1562511136.0,286046999.0,N
1562511155.8,286046999.1,N
1562511175.6,286046999.0,N
1562511195.5,286046999.1,N
1562511215.3,286046999.6,N
1562511235.2,286046996.9,Y
1562511255.9,286046999.2,P
1562511275.7,286046996.9,P
1562511295.6,286046997.4,N
1562511315.4,286046997.0,Y
1562511335.3,286046999.6,P
1562511355.1,286046998.2,N
1562511356.0,286046998.2,N
1562511375.8,286047000.4,N
1562511395.7,286046999.9,N
1562511415.5,286047000.5,N
1562511435.3,286047002.8,N
1562511455.2,286047002.0,N
1562511475.0,286047001.3,N
1562511475.9,286047001.3,N
1562511495.8,286047003.3,N
1562511515.6,286047005.2,Y
1562511535.4,286047002.9,P
1562511555.3,286046999.8,N
1562511575.1,286046999.7,N
1562511595.9,286046999.7,N
